Location: San Gennaro Vesuviano
(40.8833°N, 14.5333°E)
Time: 21:17:53
(UTC+00:00)

USA 281 - Pass Details

Date: 22 April 2021
Orbit: 1078 x 1081 km, 106.0° (Epoch: 07 May)

Event Time Altitude Azimuth Distance (km) Brightness Sun altitude
Exits shadow 23:43:10 56° 342° (NNW) 1,265 3.6 -35.7°
Drops below altitude 10° 23:48:12 10° 338° (NNW) 2,926 6.0 -35.4°
Sets 23:50:43 0° 338° (NNW) 3,886 6.8 -35.3°
